Regional Weather Roundup
Issued by NWS Midland/Odessa, TX

Skip options and go directly to product.
Home | Oldest Version | Next Version | Current Version | All | Text Only | Save Text | Print | Product List | Glossary On

Skip product version selection by date and time.   
127
ASUS44 KMAF 250901
RWRMAF
MIDLAND AREA WEATHER ROUNDUP
NATIONAL WEATHER SERVICE MIDLAND TX
400 AM CDT SAT APR 25 2015

...IN SOUTHWEST TEXAS AND SOUTHEAST NEW MEXICO...

CITY           SKY/WX    TMP DP  RH WIND       PRES   REMARKS
ALPINE         CLEAR     46  32  57 CALM      30.04S
ANDREWS        FAIR      59  28  31 W14       29.86S
ARTESIA        CLEAR     57  28  33 W13       29.89S
BIG SPRING     CLEAR     56  28  33 S10       29.84S
CARLSBAD       CLEAR     59  29  31 S12G21    29.86F
DRYDEN           N/A     62  57  83 N9        29.85S
FORT STOCKTON  CLEAR     57  29  34 SW10      29.90F
GUAD PASS      NOT AVBL
HOBBS          CLEAR     54  28  37 W12       29.88S
MARFA          CLEAR     43  32  65 CALM      30.02F
MIDLAND AIRPK  CLEAR     60  31  33 W7        29.85R
MIDLAND INTL   CLEAR     55  33  43 SW6       29.84R
ODESSA         CLEAR     63  28  26 NW20G26   29.85S
PECOS          CLEAR     57  28  33 W8        29.88S
PRESIDIO       FAIR      57  28  32 N12       29.93S
SEMINOLE       CLEAR     51  30  43 W9        29.86F
SNYDER         CLEAR     51  38  63 SW9       29.79S
WINK           CLEAR     53  26  35 W9        29.86R
$$
...OTHER STATIONS IN TEXAS...

CITY           SKY/WX    TMP DP  RH WIND       PRES   REMARKS
ABILENE        CLEAR     59  39  47 W9        29.77R
AMARILLO       CLEAR     58  27  30 W22G29    29.73R
AUSTIN         TSTM      72  72 100 SE3       29.73F
BROWNSVILLE    CLOUDY    79  77  94 SE10      29.72S FOG
CORPUS CHRISTI CLOUDY    77  73  87 SE15      29.68F
DALLAS FTW     PTCLDY    58  58 100 SW9       29.67S
DEL RIO        CLOUDY    72  71  97 N8        29.78S FOG
EL PASO        PTCLDY    57  30  35 SW6       29.95S
HOUSTON INT    CLOUDY    77  74  90 W5        29.74F FOG
LUBBOCK        CLEAR     51  34  52 W12       29.80S
SAN ANGELO     CLEAR     53  44  71 W5        29.82R
SAN ANTONIO    TSTM      74  70  87 SW14G26   29.79R VSB 1/4
WACO           PTCLDY    65  63  93 S7        29.72F
WICHITA FALLS  NOT AVBL
$$
...OTHER LOCATIONS IN NEW MEXICO...

CITY           SKY/WX    TMP DP  RH WIND       PRES   REMARKS
ALAMAGORDO     CLEAR     50  28  43 S7        29.95S
ALBUQUERQUE    PTCLDY    50  32  50 W9        29.96S
CANNON AFB     NOT AVBL
CLOVIS         CLEAR     50  28  43 W12       29.83S
HOLLOMAN AFB   NOT AVBL
ROSWELL        CLEAR     55  30  38 W10       29.87S
RUIDOSO        CLEAR     45  27  49 NW5       30.02S
SANTA FE       CLEAR     39  29  67 NW6       29.94F WCI  35
TRUTH OR CONSE CLEAR     50  31  48 NW8       29.95F
TUCUMCARI      CLEAR     55  30  38 W20       29.77S
$$

USA.gov is the U.S. government's official web portal to all federal, state and local government web resources and services.